STARLINK-32309, 61676

Orbit data source: Space-Track

STARLINK-32309, 61676 is a payload satellite owned by SpaceX/Seattle (US) in LEO that was launched on Sat, 26 Oct 2024 UTC via an FALCON 9 launch vehicle from the Air Force Eastern Test Range (AFETR). Payload-class satellites include a variety of spacecraft equipped with specific instruments for various scientific and technological missions. These include communications satellites like Starlink; space stations such as the ISS; scientific satellites like the Hubble; Earth observation satellites from companies like Planet Labs, Umbra, and HawkEye 360; GPS; miniature CubeSats for education and research; and military/defense satellites.

Loading next visibility...
Identifier
61676, 2024-193R
Orbit
LEO
Country
Flag of USUS
Related business
Manufacturer
SpaceX/Seattle
Mission
Operational Commercial Communications
Bus & Motor
STARLINK V2M, Unknown motor
Mass
730 kg wet, ~700 kg dry
Launch date (UTC)
2024-10-26 (1 year ago)
Launch vehicle
FALCON 9
Launch site
Air Force Eastern Test Range (AFETR)
Object type
Payload
Rocket body
Debris
Shape & HBR
Box + 2 Pan, 17.7 m
Radar Cross Section
33.884 m², Large (>1 m²)

Expand to show TLE details & history
Last TLE update: 6 hours ago

TLE from 6 hours ago
0 STARLINK-32309
1 61676U 24193R   25312.15366593  .00000399  00000-0  25609-4 0  9993
2 61676  53.1619 295.1963 0001380  73.6052 286.5101 15.30190960 57923
Epoch: 2025-11-08T03:41Z
TLE epoch observation values (Epoch: 2025-11-08T03:41:16.736Z)
Latitude
0.00003°
Longitude
-167.71077°
Altitude
475.873 km
Speed
7.629 km/s
True Right ascension
19h 40m 47s
True Declination
0° 00' 00"
Sunlit
Object was in daylight at epoch
Visualization orbit readout
Latitude
Unknown
Longitude
Unknown
Altitude
Unknown
Speed
Unknown
Apparent Right ascension
Unknown
Apparent Declination
Unknown
Sunlit
N/A
Visualization observer readout
Local Sidereal Time
05:57:25
Azimuth
Unknown
Elevation
Unknown
Doppler factor
Unknown
Orbital elements
Apogee altitude
476.444 km
Perigee altitude
474.552 km
Semi-major axis
6,853.635 km
Eccentricity
0.00014
Inclination
53.1619°
RAAN
295.1963°
Arg. of periapsis
73.6052°
True anomaly
286.49494°
Mean anomaly
286.5101°
Eccentric anomaly
286.50252°
Mean motion
3.82527 °/min
Orbital period
94.11 mins
BSTAR
0.000025609
Loading maneuver chart data...
Computing Atmospheric mass density...
Loading historical data...
Loading historical data...
Loading historical data...
Loading historical data...
Loading historical data...
Loading historical data...
Loading historical data...

Documentation

Showing up to 5 results
|